FW8347 Weather Reports


time (UTC)temp
C
wind
direction
speed
KPH
gust
KPH
rain 1hr
cm
rain 24hr
cm
rain mn
cm
humidity
%
barometer
mb
20260906041604 21 33 9.7 17.7 0.03 0.08 0.00 83 1015.1
20260906040059 21 63 9.7 20.9 0.03 0.08 0.00 84 1015.1
20260906034613 21 25 12.9 25.7 0.03 0.08 0.08 84 1015.1
20260906033050 21 11 9.7 20.9 0.00 0.05 0.05 86 1015.1
20260906031557 20 360 14.5 22.5 0.03 0.05 0.05 87 1015.0
20260906030057 20 5 14.5 20.9 0.03 0.05 0.05 87 1014.9
20260906024558 20 355 6.4 16.1 0.03 0.05 0.05 88 1014.9
20260906023101 20 345 6.4 14.5 0.03 0.05 0.05 88 1014.8
20260906021601 20 342 8.0 14.5 0.00 0.03 0.03 88 1014.8
20260906020100 20 342 8.0 14.5 0.00 0.03 0.03 87 1014.7
20260906014550 20 360 8.0 14.5 0.00 0.03 0.03 87 1014.8
20260906013107 20 348 6.4 12.9 0.00 0.03 0.03 86 1014.6
20260906011559 20 345 3.2 12.9 0.00 0.03 0.03 85 1014.6
20260906010056 20 355 4.8 9.7 0.00 0.03 0.03 85 1014.8
20260906004546 20 355 4.8 12.9 0.00 0.03 0.03 85 1014.5
20260906003056 20 344 3.2 8.0 0.00 0.03 0.03 84 1014.4
20260906001555 21 360 1.6 8.0 0.00 0.03 0.03 82 1014.6
20260906000104 21 346 1.6 9.7 0.00 0.03 0.03 82 1014.5
20260905234620 21 340 1.6 8.0 0.00 0.03 0.03 80 1014.6
20260905233058 22 360 3.2 8.0 0.00 0.03 0.03 79 1014.6
20260905231555 22 0 0.0 4.8 0.00 0.03 0.03 76 1014.5
20260905230105 23 352 1.6 6.4 0.00 0.03 0.03 75 1014.6
20260905224606 24 346 1.6 8.0 0.00 0.03 0.03 73 1014.6
20260905223057 25 355 3.2 8.0 0.00 0.03 0.03 70 1014.5
20260905221553 25 351 3.2 6.4 0.00 0.03 0.03 71 1014.5
20260905220113 25 351 1.6 8.0 0.00 0.03 0.03 71 1014.4
20260905214555 26 0 3.2 9.7 0.00 0.03 0.03 69 1014.4
20260905213054 26 0 1.6 9.7 0.00 0.03 0.03 67 1014.3
20260905211546 27 349 3.2 8.0 0.00 0.03 0.03 66 1014.2
20260905210106 27 9 1.6 8.0 0.00 0.03 0.03 67 1014.0
20260905204557 27 355 3.2 9.7 0.00 0.03 0.03 66 1014.2
20260905203108 27 349 3.2 8.0 0.00 0.03 0.03 66 1014.2
20260905201558 27 16 6.4 14.5 0.00 0.03 0.03 67 1014.2
20260905200105 27 355 4.8 8.0 0.00 0.03 0.03 66 1014.4
20260905194553 27 350 3.2 11.3 0.00 0.03 0.03 68 1014.3
20260905193049 27 342 4.8 12.9 0.00 0.03 0.03 65 1014.4
20260905191558 26 5 3.2 12.9 0.00 0.03 0.03 70 1014.4
20260905190056 26 355 3.2 8.0 0.00 0.03 0.03 73 1014.3
20260905184602 25 26 3.2 9.7 0.00 0.03 0.03 72 1014.3
20260905183057 26 23 4.8 11.3 0.00 0.03 0.03 70 1014.3
20260905181559 26 352 3.2 8.0 0.03 0.03 0.03 69 1014.3
20260905180056 27 360 3.2 8.0 0.03 0.03 0.03 70 1014.3
20260905174554 26 10 3.2 8.0 0.03 0.03 0.03 71 1014.3
20260905173058 26 340 3.2 8.0 0.03 0.03 0.03 69 1014.2
20260905171633 27 19 4.8 9.7 0.00 0.00 0.00 67 1014.3
20260905170104 27 345 4.8 9.7 0.00 0.00 0.00 69 1014.1
20260905164552 27 338 3.2 8.0 0.00 0.00 0.00 67 1014.1
20260905163100 27 335 1.6 6.4 0.00 0.00 0.00 67 1014.4
20260905161558 26 349 3.2 8.0 0.00 0.00 0.00 69 1014.2
20260905160107 26 355 4.8 8.0 0.00 0.00 0.00 68 1014.4
20260905154613 26 355 4.8 9.7 0.00 0.00 0.00 70 1014.5
20260905153050 25 360 4.8 9.7 0.00 0.00 0.00 73 1014.4
20260905151558 25 40 3.2 11.3 0.00 0.00 0.00 75 1014.3
20260905150103 24 342 3.2 9.7 0.00 0.00 0.00 74 1014.3
20260905144550 23 348 3.2 11.3 0.00 0.00 0.00 77 1014.3
20260905143052 23 5 8.0 14.5 0.00 0.00 0.00 78 1014.3
20260905141556 22 20 6.4 12.9 0.00 0.00 0.00 80 1014.2
20260905140057 22 19 8.0 19.3 0.00 0.00 0.00 80 1014.1
20260905134550 22 351 4.8 14.5 0.00 0.00 0.00 83 1014.0
20260905133058 21 350 9.7 19.3 0.00 0.00 0.00 81 1014.1
20260905131556 22 50 14.5 22.5 0.00 0.00 0.00 80 1014.2
20260905130057 22 28 4.8 16.1 0.00 0.00 0.00 80 1014.2
20260905124559 22 349 6.4 12.9 0.00 0.00 0.00 81 1014.1
20260905123051 21 11 6.4 16.1 0.00 0.00 0.00 83 1014.1
20260905121557 21 355 4.8 17.7 0.00 0.00 0.00 84 1013.9
20260905120057 20 0 4.8 16.1 0.00 0.00 0.00 85 1013.9
20260905114604 20 349 4.8 16.1 0.00 0.00 0.00 87 1013.8
20260905113051 19 360 11.3 17.7 0.00 0.00 0.00 86 1013.7
20260905111619 19 13 8.0 16.1 0.00 0.00 0.00 86 1013.5
20260905110107 19 0 4.8 17.7 0.00 0.00 0.00 85 1013.5
20260905104616 19 24 8.0 19.3 0.00 0.00 0.00 85 1013.3
20260905103051 19 39 14.5 20.9 0.00 0.00 0.00 85 1013.0
20260905101600 20 355 6.4 19.3 0.00 0.00 0.00 85 1013.0
20260905100059 20 29 11.3 19.3 0.00 0.00 0.00 84 1012.9
20260905094702 19 65 11.3 19.3 0.00 0.00 0.00 84 1012.9
20260905093059 19 24 9.7 17.7 0.00 0.00 0.00 85 1012.7
20260905091602 19 348 4.8 16.1 0.00 0.00 0.00 85 1012.6
20260905090059 19 336 8.0 14.5 0.00 0.00 0.00 85 1012.7
20260905084605 20 344 6.4 14.5 0.00 0.00 0.00 84 1012.6
20260905083052 20 24 4.8 16.1 0.00 0.00 0.00 83 1012.6
20260905081554 20 344 4.8 16.1 0.00 0.00 0.00 82 1012.8
20260905074602 20 344 8.0 17.7 0.00 0.00 0.00 81 1013.1
20260905073105 20 10 6.4 16.1 0.00 0.00 0.00 81 1013.0
20260905071551 20 24 8.0 16.1 0.00 0.00 0.00 81 1013.0
20260905070051 20 12 8.0 17.7 0.00 0.00 0.00 81 1013.1
20260905064558 20 76 8.0 17.7 0.00 0.00 0.00 82 1013.2
20260905063053 20 5 8.0 14.5 0.00 0.00 0.00 81 1013.3
20260905061600 20 28 9.7 17.7 0.00 0.00 0.00 79 1013.3
20260905060105 20 17 9.7 16.1 0.00 0.00 0.00 79 1013.3
20260905054601 20 17 12.9 20.9 0.00 0.00 0.00 78 1013.3
20260905053057 20 57 14.5 22.5 0.00 0.00 0.00 80 1013.4
20260905051607 21 26 14.5 24.1 0.00 0.00 0.00 80 1013.3
20260905050051 21 83 17.7 25.7 0.00 0.00 0.00 80 1013.4
20260905044600 21 22 17.7 27.4 0.00 0.00 0.00 81 1013.4
20260905043056 21 28 14.5 22.5 0.00 0.00 0.00 84 1013.5